{"data":{"norad_id":48144,"epoch":"2026-05-24T10:53:45.232800Z","epoch_age_seconds":136419,"freshness":"FRESH","line1":"1 48144U 21027BE  26144.45399575  .00004491  00000+0  15628-3 0  9999","line2":"2 48144  53.1595 160.1204 0001182  84.0480 276.0656 15.31721320284282","mean_motion":15.3172132,"eccentricity":0.0001182,"inclination_deg":53.1595,"raan_deg":160.1204,"arg_perigee_deg":84.048,"mean_anomaly_deg":276.0656,"bstar":0.00015628,"rev_number":28428,"period_min":94.011879393309,"perigee_km":469.86691240336,"apogee_km":471.48597190108,"semimajor_km":6848.8134421522,"source":"CELESTRAK","updated_at":"2026-05-25T13:38:16.651404Z"}}